Regional Weather Roundup
Issued by NWS Goodland, KS

Home | Current Version | Previous Version | Graphics & Text | Print | Product List | Glossary On
Versions: 1 2 3 4 5 6 7 8 9 10 11 12 13 14 15 16 17 18 19 20 21 22 23 24 25 26 27 28 29 30 31 32 33 34 35 36 37 38 39 40 41 42 43 44 45 46 47 48 49 50
000
ASUS43 KGLD 160608
RWRGLD

GOODLAND FORECAST AREA HOURLY WEATHER ROUNDUP
NATIONAL WEATHER SERVICE GOODLAND KS
1200 AM MDT TUE SEP 16 2014

...OFFICIAL OBSERVATIONS...

CITY           SKY/WX    TMP DP  RH WIND       PRES   REMARKS
GOODLAND KS    CLEAR     51  49  92 S9        30.28F
HILL CITY KS   CLEAR     46  41  82 CALM      30.27F
IMPERIAL NEB   CLEAR     51  43  74 S12       30.24S
MCCOOK NEB     CLEAR     51  43  74 SE8       30.26F
AKRON CO       CLEAR     53  50  89 S13       30.23F
BURLINGTON CO  CLOUDY    58  51  78 S10       30.28F
LIMON CO       CLOUDY    52  51  97 S16       30.31F
$$

...UNOFFICIAL OBSERVATIONS...

CITY           SKY/WX    TMP DP  RH WIND       PRES   REMARKS
COLBY KS       CLEAR     54  48  82 SE8       30.27F
GOVE KS          N/A     49  32  52 MISG        N/A
NORTON KS      CLEAR     48  39  71 SE3       30.26
SHARON SPRINGS   N/A     58  54  87 SE7         N/A
WAKEENEY KS      N/A     50  42  73 MISG        N/A
TRENTON NEB      N/A     48  32  54 SE8         N/A
YUMA CO          N/A     54  50  87 S9          N/A
$$



USA.gov is the U.S. government's official web portal to all federal, state and local government web resources and services.